User: anonymous   Login
Location: Unspecified
(0.0000°N, 0.0000°E)
Time: 08:56:17
(UTC+00:00)
Language:

PLEIADES 1B - Orbit

View from above orbital plane
View from above orbital plane
View from above satellite
View from above satellite

Ground track
Ground track

The orbit data is extracted from the following two-line orbital elements,

1 39019U 12068A   17351.81838909 -.00000030  00000-0  33784-5 0  9996
2 39019  98.1853  64.4706 0001441  84.1687 275.9667 14.58556322268480
Epoch (UTC): 17 December 2017 19:38:28
Eccentricity: 0.0001441
inclination: 98.1853°
perigee height: 697 km
apogee height: 699 km
right ascension of ascending node: 64.4706°
argument of perigee: 84.1687°
revolutions per day: 14.58556322
mean anomaly at epoch: 275.9667°
orbit number at epoch: 26848

The dashed part of the orbit path shows where the satellite is in the earth's shadow,  

DLR